This is the latest recevied weather packets stored in our database for station/object IZ1UQG-1. If no packets are shown the sender has not sent any weather packets the latest 10 day(s).
| Time | Temp. | Humidity | Pressure | Rain* | Wind** | Luminosity | Snow |
|---|---|---|---|---|---|---|---|
| 1777866238 | 15.56° C | 54% | 1016.9 hPa | 136.4 mm | - | - | - |
| 1777865938 | 15.56° C | 54% | 1016.9 hPa | 85.6 mm | - | - | - |
| 1777865638 | 15.56° C | 54% | 1016.9 hPa | 142.24 mm | - | - | - |
| 1777865338 | 15.56° C | 53% | 1017 hPa | 142.75 mm | - | - | - |
| 1777865038 | 15.56° C | 53% | 1017 hPa | 150.37 mm | - | - | - |
| 1777864738 | 15.56° C | 53% | 1016.9 hPa | 97.54 mm | - | - | - |
| 1777864438 | 15.56° C | 53% | 1016.8 hPa | 84.07 mm | - | - | - |
| 1777864138 | 15.56° C | 53% | 1016.8 hPa | 112.01 mm | - | - | - |
| 1777863838 | 16.11° C | 53% | 1016.8 hPa | 128.27 mm | - | - | - |
| 1777863538 | 16.11° C | 53% | 1017 hPa | 61.98 mm | - | - | - |
| 1777863238 | 16.11° C | 53% | 1016.9 hPa | 114.81 mm | - | - | - |
| 1777862938 | 16.11° C | 53% | 1016.9 hPa | 126.49 mm | - | - | - |
| 1777862638 | 16.11° C | 52% | 1016.8 hPa | 124.46 mm | - | - | - |
| 1777862338 | 16.11° C | 52% | 1017.1 hPa | 121.92 mm | - | - | - |
| 1777862038 | 16.11° C | 52% | 1017 hPa | 119.89 mm | - | - | - |
| 1777861738 | 16.11° C | 52% | 1017 hPa | 122.94 mm | - | - | - |
| 1777861438 | 16.11° C | 52% | 1017 hPa | 150.37 mm | - | - | - |
| 1777861138 | 16.11° C | 52% | 1016.9 hPa | 145.8 mm | - | - | - |
| 1777860838 | 16.67° C | 52% | 1016.8 hPa | 152.91 mm | - | - | - |
| 1777860539 | 16.67° C | 52% | 1016.7 hPa | 157.23 mm | - | - | - |
| 1777859938 | 16.67° C | 51% | 1017 hPa | 88.9 mm | - | - | - |
| 1777859638 | 16.67° C | 51% | 1017 hPa | 155.19 mm | - | - | - |
| 1777859338 | 16.67° C | 51% | 1017 hPa | 128.78 mm | - | - | - |
| 1777859038 | 16.67° C | 52% | 1016.8 hPa | 127.51 mm | - | - | - |
| 1777858738 | 16.67° C | 52% | 1016.9 hPa | 99.06 mm | - | - | - |
* Rain latest hour (hover to see other rain measurements)
** Current wind speed in m/s (hover to see current wind gust speed)